Regional Weather Roundup
Issued by NWS

Home | Current Version | Previous Version | Text Only | Print | Product List | Glossary Off
Versions: 1 2 3 4 5 6 7 8 9 10 11 12 13 14 15 16 17 18 19 20 21 22 23 24 25 26 27 28 29 30 31 32 33 34 35 36 37 38 39 40 41 42 43 44 45 46 47 48 49 50

000
ASUS45 KTFX 042119
RWRMT
MONTANA REGIONAL WEATHER ROUNDUP
NATIONAL WEATHER SERVICE GREAT FALLS MT
300 PM MDT FRI SEP 04 2015

NOTE: "FAIR" INDICATES FEW OR NO CLOUDS BELOW 12000 FEET WITH NO
SIGNIFICANT WEATHER AND/OR OBSTRUCTIONS TO VISIBILITY.

MTZ001>007-043-042200-
WEST OF THE DIVIDE

CITY           SKY/WX    TMP DP  RH WIND       PRES   REMARKS
KALISPELL      CLOUDY    62  41  46 VRB6      29.93F
MISSOULA       PTSUNNY   61  44  53 S9G18     29.93F
BUTTE          LGT RAIN  46  41  82 E3        30.01F
MULLAN PASS    PTSUNNY   52  34  50 VRB3      29.95F
DEER LODGE       N/A     46  45  93 SE3       30.03S
EUREKA           N/A     57  43  58 CALM      29.99F
HAMILTON         N/A     59  45  58 N8        29.91F
LIBBY            N/A     64  37  36 W6        29.93F
PLAINS           N/A     68  38  33 NE5       29.92F
RONAN            N/A     58  48  69 SE5       30.00F
THOMPSON FALLS   N/A     68  36  30 NE12      29.93F
$$

MTZ008-052>055-042200-
SOUTHWEST MONTANA

CITY           SKY/WX    TMP DP  RH WIND       PRES   REMARKS
BOZEMAN        CLOUDY    59  47  64 NW6       29.95S
DILLON         CLOUDY    53  40  61 CALM      29.96S
W YELLOWSTONE    N/A     66  34  30 SW9       29.93S
THREE FORKS      N/A     59  56  89 N8        29.95F
TWIN BRIDGES     N/A     58  41  53 N14       29.94F
$$

MTZ009-010-012-014-046-048-049-054-042200-
EAST SLOPES AND CENTRAL MONTANA

CITY           SKY/WX    TMP DP  RH WIND       PRES   REMARKS
CUT BANK       LGT RAIN  45  43  93 N18       30.02S FOG
GREAT FALLS    CLOUDY    51  49  92 N6        29.99F
MALMSTROM AFB  PTSUNNY   52  50  93 N7        30.00S
HELENA         CLOUDY    55  45  68 W6        29.97F
CONRAD           N/A     49  49 100 NE2       30.03R
$$

MTZ011-013-016-021-045-047-050-051-042200-
NORTH CENTRAL MONTANA

CITY           SKY/WX    TMP DP  RH WIND       PRES   REMARKS
HAVRE          CLOUDY    53  51  93 E12       30.00S
LEWISTOWN      CLOUDY    60  41  49 VRB3      29.97S
N BAR RANCH      N/A     61  45  55 N13G20    29.98F
CHINOOK          N/A     54  52  94 N3        30.00F
FORT BENTON      N/A     52  46  82 CALM      30.01R
$$

MTZ017>020-022>027-061-062-042200-
NORTHEAST MONTANA

CITY           SKY/WX    TMP DP  RH WIND       PRES   REMARKS
GLASGOW        PTSUNNY   75  47  36 NE17G23   29.87F
JORDAN           N/A     70  50  49 N10       29.88S
SIDNEY         PTSUNNY   73  55  53 NE12        N/A
WOLF POINT       N/A     77  53  43 E15G25    29.86F
MALTA            N/A     61  49  64 NW13      29.93R
PLENTYWOOD       N/A     64  48  55 NE18      29.89F
POPLAR           N/A     70  54  56 NE16      29.87F
SCOBEY           N/A     69  47  45 NE17      29.90F
$$

MTZ028>42-056>058-042200-
SOUTHCENTRAL AND SOUTHEAST MONTANA

CITY           SKY/WX    TMP DP  RH WIND       PRES   REMARKS
BAKER            N/A     76  58  53 N6        29.85F
BILLINGS         N/A     68  45  43 VRB7      29.90F
LIVINGSTON     CLOUDY    63  45  51 E10       29.92F
MILES CITY     CLOUDY    73  53  49 VRB3      29.85F
EKALAKA          N/A     76  55  47 NW5       29.86F
FORSYTH          N/A     66  46  48 SW9       29.86F
LAUREL           N/A     68  46  45 NE3       29.90F
ROUNDUP          N/A     65  45  48 N14       29.86S
$$

REGIONAL REPORTS...DAKOTAS

CITY           SKY/WX    TMP DP  RH WIND       PRES   REMARKS
WILLISTON        N/A     73  57  57 N16       29.86F
MINOT          CLOUDY    73  62  68 NW15G21   29.81R
DICKINSON      PTSUNNY   75  64  68 NE8       29.83S
BEACH          CLOUDY    68  59  73 NE7       29.87F
CROSBY         CLOUDY    68  54  60 NE15      29.89S
BISMARCK         N/A     86  67  52 CALM      29.77R
GRAND FORKS    PTSUNNY   78  65  63 SW9       29.79R
FARGO          LGT RAIN  79  71  76 SE8       29.81R
BUFFALO SD       N/A     88  57  34 CALM      29.76F
RAPID CITY       N/A     89  55  31 N5        29.80F
$$

REGIONAL REPORTS...WYOMING/IDAHO/WASHINGTON

CITY           SKY/WX    TMP DP  RH WIND       PRES   REMARKS
GILLETTE         N/A     84  48  28 CALM      29.86F
SHERIDAN         N/A     81  47  30 CALM      29.84F
BUFFALO WY       N/A     82  44  26 VRB6      29.89F
CODY             N/A     66  48  52 N15       29.88F
YELLOWSTONE LA   N/A     66  32  28 VRB6      30.02F
IDAHO FALLS      N/A     76  41  28 VRB3      29.81F
SALMON         CLOUDY    50  43  76 CALM      29.92F
BOISE            N/A     71  40  32 VRB5      29.74F
SPOKANE          N/A     66  31  27 NE8       29.88F
$$

REGIONAL REPORTS...ALBERTA

CITY           SKY/WX    TMP DP  RH WIND       PRES   REMARKS
EDMONTON       CLOUDY    50  39  66 N3        30.18F
CALGARY        LGT RAIN  43  39  87 N13G22    30.13S
LETHBRIDGE     CLOUDY    46  45  93 NW13      30.06S
MEDICINE HAT   LGT RAIN  52  52 100 NE9       30.04F FOG
WATERTON GATE    N/A     43  39  87 NE5         N/A
CARDSTON         N/A     43  41  93 N9          N/A
MILK RIVER       N/A     46  45  93 N15         N/A
ONEFOUR          N/A     50  48  93 E6          N/A
$$

REGIONAL REPORTS...SASKATCHEWAN

CITY           SKY/WX    TMP DP  RH WIND       PRES   REMARKS
SWIFT CURRENT  LGT RAIN  52  50  93 N9        30.04S
REGINA         MOSUNNY   64  39  39 NE22      29.97F
SASKATOON      PTSUNNY   59  41  51 N15       30.08F
CYPRESS HILLS    N/A     48  46  93 E6          N/A
VAL MARIE        N/A     54  48  82 N14G21      N/A
ROCKGLEN         N/A     61  43  51 N13G22      N/A
ASSINIBOIA       N/A     52  39  62 N7          N/A
$$


USA.gov is the U.S. government's official web portal to all federal, state and local government web resources and services.